{"data":{"norad_id":62610,"intl_designator":"2025-009B","name":"EDISON-1","alt_names":[],"object_type":"PAYLOAD","status":"ACTIVE","operator":null,"country":"DEN","launch_date":"2025-01-14","launch_site_code":"AFWTR","launch_vehicle":null,"mission":null,"orbit_class":"UNKNOWN","rcs_meters":null,"size_class":null,"mass_kg":null,"dimensions":null,"purposes":[],"wikipedia_slug":null,"has_3d_model":false,"image_url":null,"decayed_at":null,"tle_current":{"epoch":"2026-09-22T20:36:19.432800Z","epoch_age_seconds":113959,"freshness":"FRESH","line1":"1 62610U 25009B   26265.85855825  .00009222  00000+0  28541-3 0  9995","line2":"2 62610  97.3951 348.3494 0004080 334.5282  25.5759 15.33692185 93913","mean_motion":15.33692185,"eccentricity":0.000408,"inclination_deg":97.3951,"raan_deg":348.3494,"arg_perigee_deg":334.5282,"mean_anomaly_deg":25.5759,"bstar":0.00028541,"rev_number":9391,"period_min":93.891069804206,"perigee_km":462.01590311772,"apogee_km":467.5997460946,"semimajor_km":6842.9448246062,"source":"CELESTRAK","updated_at":"2026-09-23T09:00:21.498481Z"}}}